FW8458 Weather Reports


time (UTC)temp
C
wind
direction
speed
KPH
gust
KPH
rain 1hr
cm
rain 24hr
cm
rain mn
cm
humidity
%
barometer
mb
20260507020525 7 0.0 0.0 0.00 0.00 0.00 98
20260507015524 7 0.0 0.0 0.00 0.00 0.00 98
20260507014524 7 0.0 0.0 0.00 0.00 0.00 98
20260507013526 7 17 0.0 1.6 0.00 0.00 0.00 97
20260507012524 7 0.0 0.0 0.00 0.00 0.00 97
20260507011525 7 305 0.0 1.6 0.00 0.00 0.00 96
20260507010525 7 0.0 0.0 0.00 0.00 0.00 96
20260507005525 7 0.0 0.0 0.00 0.00 0.00 95
20260507004546 7 357 0.0 1.6 0.00 0.00 0.00 95
20260507003525 7 305 0.0 3.2 0.00 0.00 0.00 95
20260507002527 7 313 3.2 6.4 0.00 0.00 0.00 95
20260507001527 7 0.0 0.0 0.00 0.00 0.00 95
20260507000526 7 0.0 0.0 0.00 0.00 0.00 95
20260506235526 7 306 1.6 4.8 0.00 0.00 0.00 95
20260506234527 7 298 1.6 4.8 0.00 0.00 0.00 95
20260506233607 7 0.0 0.0 0.00 0.00 0.00 95
20260506232528 7 316 0.0 4.8 0.00 0.00 0.00 94
20260506231548 7 293 1.6 3.2 0.00 0.00 0.00 95
20260506230549 7 291 1.6 4.8 0.00 0.00 0.00 95
20260506225527 8 294 1.6 6.4 0.00 0.00 0.00 95
20260506224523 8 294 3.2 11.3 0.00 0.00 0.00 95
20260506223530 8 277 4.8 8.0 0.00 0.00 0.00 95
20260506222518 8 296 4.8 9.7 0.00 0.00 0.00 95
20260506221518 8 293 4.8 9.7 0.00 0.00 0.00 93
20260506220529 8 331 1.6 6.4 0.00 0.00 0.00 93
20260506215528 8 333 3.2 8.0 0.00 0.00 0.00 94
20260506214523 8 332 3.2 8.0 0.00 0.00 0.00 94
20260506213530 8 314 4.8 8.0 0.00 0.00 0.00 94
20260506212518 8 313 6.4 9.7 0.00 0.00 0.00 95
20260506211518 8 313 4.8 11.3 0.00 0.00 0.00 97
20260506210528 8 339 1.6 4.8 0.00 0.00 0.00 97
20260506205518 8 326 4.8 11.3 0.00 0.00 0.00 97
20260506204519 8 333 4.8 9.7 0.00 0.00 0.00 98
20260506203539 9 322 4.8 9.7 0.00 0.00 0.00 98
20260506202530 9 318 1.6 4.8 0.00 0.00 0.00 98
20260506201529 9 358 1.6 4.8 0.00 0.00 0.00 98
20260506200551 9 349 1.6 3.2 0.00 0.00 0.00 98
20260506195529 9 328 1.6 6.4 0.00 0.00 0.00 98
20260506194540 9 313 3.2 6.4 0.00 0.00 0.00 98
20260506193550 9 335 1.6 6.4 0.00 0.00 0.00 98
20260506192533 9 0 0.0 0.0 0.00 0.00 0.00 97
20260506191530 9 323 1.6 3.2 0.00 0.00 0.00 97
20260506190531 9 322 3.2 8.0 0.00 0.00 0.00 96
20260506185519 9 336 3.2 8.0 0.00 0.00 0.00 96
20260506184519 9 317 1.6 4.8 0.00 0.00 0.00 96
20260506183517 9 3 3.2 8.0 0.00 0.00 0.00 96
20260506182521 10 346 3.2 9.7 0.00 0.00 0.00 97
20260506181521 10 320 6.4 12.9 0.00 0.00 0.00 97
20260506180522 11 291 4.8 11.3 0.00 0.00 0.00 97
20260506175521 12 302 6.4 14.5 0.00 0.00 0.00 96
20260506174522 13 309 6.4 14.5 0.00 0.00 0.00 96
20260506173539 14 311 1.6 4.8 0.00 0.00 0.00 97
20260506172519 14 305 0.0 1.6 0.00 0.00 0.00 96
20260506171519 14 254 1.6 4.8 0.00 0.00 0.00 96
20260506170519 14 11 1.6 4.8 0.00 0.00 0.00 96
20260506165519 14 241 0.0 4.8 0.00 0.00 0.00 96
20260506164519 14 240 1.6 4.8 0.00 0.00 0.00 97
20260506163519 14 0.0 0.0 0.00 0.00 0.00 97
20260506162519 14 224 1.6 4.8 0.00 0.00 0.00 97
20260506161519 13 0.0 0.0 0.00 0.00 0.00 97
20260506160521 13 287 1.6 3.2 0.00 0.00 0.00 97
20260506155520 13 0.0 0.0 0.00 0.00 0.00 96
20260506154520 13 0.0 0.0 0.00 0.00 0.00 96
20260506153521 13 0.0 0.0 0.00 0.00 0.00 96
20260506152520 13 0.0 0.0 0.00 0.00 0.00 96
20260506151522 13 252 1.6 4.8 0.00 0.00 0.00 95
20260506150521 13 0.0 0.0 0.00 0.00 0.00 96
20260506145521 13 199 1.6 4.8 0.00 0.00 0.00 96
20260506144521 13 87 1.6 4.8 0.00 0.00 0.00 97
20260506143521 13 178 1.6 4.8 0.00 0.00 0.00 99
20260506142522 13 0.0 0.0 0.00 0.00 0.00 100
20260506141522 13 0.0 0.0 0.00 0.00 0.00 100
20260506140522 13 34 0.0 1.6 0.00 0.00 0.00 99
20260506135522 12 29 1.6 3.2 0.00 0.00 0.00 99
20260506134522 12 42 1.6 3.2 0.00 0.00 0.00 99
20260506133522 12 24 0.0 1.6 0.00 0.00 0.00 99
20260506132522 12 0.0 0.0 0.00 0.00 0.00 99
20260506131523 12 0.0 0.0 0.00 0.00 0.00 99
20260506130523 11 7 1.6 3.2 0.00 0.00 0.00 99
20260506125523 11 0.0 0.0 0.00 0.00 0.00 100
20260506124523 11 0.0 0.0 0.00 0.00 0.00 100
20260506123543 11 342 0.0 1.6 0.00 0.00 0.00 100
20260506122523 10 0.0 0.0 0.00 0.00 0.00 100
20260506121523 11 93 1.6 4.8 0.00 0.00 0.00 100
20260506120524 11 67 0.0 3.2 0.00 0.00 0.00 100
20260506115544 11 0.0 0.0 0.00 0.00 0.00 99
20260506114524 10 0.0 0.0 0.00 0.00 0.00 99
20260506113524 10 0.0 0.0 0.00 0.00 0.00 99
20260506112525 10 300 0.0 3.2 0.00 0.00 0.00 99
20260506111519 10 0.0 0.0 0.00 0.00 0.00 99
20260506110540 10 0.0 0.0 0.00 0.00 0.00 99
20260506105519 10 65 0.0 1.6 0.00 0.00 0.00 99
20260506104539 10 0.0 0.0 0.00 0.00 0.00 98
20260506103519 10 338 0.0 1.6 0.00 0.00 0.00 98
20260506102520 10 0.0 0.0 0.00 0.00 0.00 98
20260506101520 10 38 0.0 1.6 0.00 0.00 0.00 98
20260506100520 10 0.0 0.0 0.00 0.00 0.00 97
20260506095517 10 0.0 0.0 0.00 0.00 0.00 97
20260506094539 10 0.0 0.0 0.00 0.00 0.00 96
20260506093542 10 58 0.0 1.6 0.00 0.00 0.00 96
20260506092521 10 0.0 0.0 0.00 0.00 0.00 95
20260506091518 10 0.0 0.0 0.00 0.00 0.00 95
20260506090518 11 0.0 0.0 0.00 0.00 0.00 94
20260506085558 11 0.0 0.0 0.00 0.00 0.00 93
20260506084518 11 77 0.0 1.6 0.00 0.00 0.00 92
20260506083521 11 0.0 0.0 0.00 0.00 0.00 91
20260506082519 11 288 0.0 3.2 0.00 0.00 0.00 91
20260506081519 11 169 0.0 3.2 0.00 0.00 0.00 91
20260506080520 11 0.0 0.0 0.00 0.00 0.00 90
20260506072520 11 108 0.0 3.2 0.00 0.00 0.00 92
20260506071521 11 66 0.0 4.8 0.00 0.00 0.00 93
20260506070540 11 0.0 0.0 0.00 0.00 0.00 94
20260506061540 11 0.0 0.0 0.00 0.00 0.00 96
20260506060519 11 5 0.0 1.6 0.00 0.00 0.00 96
20260506050541 11 45 0.0 0.0 0.00 0.00 0.00 93
20260506044517 11 0.0 0.0 0.00 0.00 0.00 92
20260506043520 11 0.0 0.0 0.00 0.00 0.00 91
20260506042520 12 311 0.0 3.2 0.00 0.00 0.00 90
20260506041520 12 101 0.0 3.2 0.00 0.00 0.00 89
20260506040518 12 62 0.0 1.6 0.00 0.00 0.00 87
20260506035518 12 0.0 0.0 0.00 0.00 0.00 86
20260506034539 12 353 0.0 0.0 0.00 0.00 0.00 85
20260506033542 13 307 1.6 8.0 0.00 0.00 0.00 85
20260506032519 13 326 1.6 8.0 0.00 0.00 0.00 88
20260506031518 13 44 0.0 3.2 0.00 0.00 0.00 88
20260506030519 13 348 0.0 4.8 0.00 0.00 0.00 87
20260506025519 13 162 0.0 4.8 0.00 0.00 0.00 88
20260506024520 14 314 1.6 6.4 0.00 0.00 0.00 88
20260506023519 14 346 3.2 9.7 0.00 0.00 0.00 88
20260506022519 15 335 1.6 8.0 0.00 0.00 0.00 89
20260506021520 15 321 1.6 6.4 0.00 0.00 0.00 90